Flag for Greenland Weather past 2 weeks in Qaanaaq, Greenland

Now
18 °F

Clear.


Feels Like: 8 °F
Forecast: 14 / 18 °F
Wind: 7 mph from Southeast

Location: Thule A. B.

Current Time: Oct 2, 2014 at 12:04:09 PM

Latest Report: Oct 2, 2014 at 10:58 AM


Visibility: N/A

Pressure: 29.52 "Hg

Humidity: 62%

Dew point: 7 °F

Location of QaanaaqLocation

Historic Weather in Qaanaaq — Graph

°F

Qaanaaq temperature yesterday

Maximum temperature yesterday: 23 °F (at 1:58 PM)
Minimum temperature yesterday: 10 °F (at 10:58 PM)
Average temperature yesterday: 17 °F

Past Weeks' High & Low Weather Summary

 TemperatureHumidityPressure
High37 °F (Sep 17, 2:58 PM)100% (Sep 19, 7:00 PM)29.99 "Hg (Sep 19, 7:00 PM)
Low5 °F (Sep 30, 5:58 AM)40% (Sep 24, 1:58 PM)28.98 "Hg (Sep 24, 8:58 AM)
Average26 °F77%29.52 "Hg
* Reported Sep 17 10:58 AM — Oct 2 10:58 AM, Qaanaaq, Weather by CustomWeather, © 2014

Note: Actual official high and low records may vary slightly from our data, if they occured in-between our weather recording intervals... More about our weather records

Advertising

Qaanaaq weather history for previous 24 hours

 ConditionsComfort  
Time TempWeatherWind HumidityBarometerVisibility
10:58 AM
Oct 2
18 °FClear.7 mph62%29.52 "HgN/A
9:58 AM19 °FClear.No wind58%29.50 "HgN/A
8:58 AM14 °FClear.13 mph67%29.49 "HgN/A
7:58 AM12 °FClear.12 mph67%29.47 "HgN/A
6:58 AM12 °FClear.12 mph73%29.46 "HgN/A
5:58 AM15 °FClear.14 mph65%29.45 "HgN/A
4:58 AM13 °FClear.15 mph68%29.43 "HgN/A
3:58 AM16 °FClear.5 mph64%29.42 "HgN/A
2:58 AM19 °FClear.7 mph58%29.42 "HgN/A
1:58 AM18 °FClear.5 mph62%29.42 "HgN/A
12:58 AM16 °FClear.13 mph67%29.41 "HgN/A
11:58 PM
Oct 1
14 °FClear.9 mph73%29.41 "HgN/A
10:58 PM10 °FClear.12 mph79%29.41 "HgN/A
9:58 PM12 °FClear.5 mph79%29.41 "HgN/A
8:58 PM12 °FSunny.7 mph79%29.40 "HgN/A
7:58 PM17 °FSunny.9 mph77%29.40 "HgN/A
6:58 PM19 °FSunny.10 mph73%29.40 "HgN/A
5:58 PM18 °FSunny.10 mph79%29.40 "HgN/A
4:58 PM21 °FScattered clouds.12 mph80%29.40 "HgN/A
3:58 PM23 °FOvercast.7 mph80%29.40 "HgN/A
2:58 PM23 °FOvercast.10 mph74%29.41 "HgN/A
1:58 PM23 °FOvercast.10 mph74%29.41 "HgN/A
12:58 PM21 °FOvercast.10 mph74%29.43 "HgN/A
Weather by CustomWeather, © 2014

See weather overviewHow to use our weather pages